TimeEST,TemperatureF,Dew PointF,Humidity,Sea Level PressureIn,VisibilityMPH,Wind Direction,Wind SpeedMPH,Gust SpeedMPH,PrecipitationIn,Events,Conditions,WindDirDegrees,DateUTC
12:53 AM,30.0,26.1,85,30.21,10.0,Calm,Calm,-,N/A,,Clear,0,2012-12-12 05:53:00
1:53 AM,30.0,28.0,92,30.24,10.0,Calm,Calm,-,N/A,,Clear,0,2012-12-12 06:53:00
2:53 AM,28.9,26.1,89,30.25,10.0,Calm,Calm,-,N/A,,Clear,0,2012-12-12 07:53:00
3:53 AM,28.9,26.1,89,30.27,10.0,Calm,Calm,-,N/A,,Clear,0,2012-12-12 08:53:00
4:53 AM,28.9,27.0,92,30.31,10.0,Calm,Calm,-,N/A,,Clear,0,2012-12-12 09:53:00
5:53 AM,28.0,26.1,92,30.33,10.0,Calm,Calm,-,N/A,,Clear,0,2012-12-12 10:53:00
6:53 AM,26.1,23.0,88,30.36,10.0,Calm,Calm,-,N/A,,Clear,0,2012-12-12 11:53:00
7:53 AM,26.1,23.0,88,30.37,10.0,Calm,Calm,-,N/A,,Clear,0,2012-12-12 12:53:00
8:53 AM,35.1,30.0,82,30.38,10.0,Calm,Calm,-,N/A,,Clear,0,2012-12-12 13:53:00
9:53 AM,37.9,28.0,68,30.39,10.0,NNW,4.6,-,N/A,,Clear,340,2012-12-12 14:53:00
10:53 AM,42.1,25.0,51,30.40,10.0,NW,8.1,-,N/A,,Clear,320,2012-12-12 15:53:00
11:53 AM,42.1,23.0,47,30.39,10.0,NNW,10.4,-,N/A,,Clear,330,2012-12-12 16:53:00
12:53 PM,43.0,24.1,47,30.38,10.0,NNW,9.2,-,N/A,,Clear,330,2012-12-12 17:53:00
1:53 PM,42.1,24.1,49,30.37,10.0,NW,5.8,-,N/A,,Clear,320,2012-12-12 18:53:00
2:53 PM,42.1,24.1,49,30.38,10.0,NNW,4.6,-,N/A,,Clear,340,2012-12-12 19:53:00
3:53 PM,39.9,26.1,58,30.39,10.0,Calm,Calm,-,N/A,,Clear,0,2012-12-12 20:53:00
4:53 PM,33.1,24.1,70,30.41,10.0,Calm,Calm,-,N/A,,Clear,0,2012-12-12 21:53:00
5:53 PM,30.0,24.1,79,30.42,10.0,Calm,Calm,-,N/A,,Clear,0,2012-12-12 22:53:00
6:53 PM,28.0,24.1,85,30.42,10.0,Calm,Calm,-,N/A,,Clear,0,2012-12-12 23:53:00
7:53 PM,28.0,24.1,85,30.42,10.0,Calm,Calm,-,N/A,,Clear,0,2012-12-13 00:53:00
8:53 PM,28.9,25.0,85,30.43,10.0,Calm,Calm,-,N/A,,Clear,0,2012-12-13 01:53:00
9:53 PM,28.0,24.1,85,30.45,10.0,Calm,Calm,-,N/A,,Clear,0,2012-12-13 02:53:00
10:53 PM,28.0,24.1,85,30.44,10.0,Calm,Calm,-,N/A,,Clear,0,2012-12-13 03:53:00
11:53 PM,28.0,25.0,88,30.44,10.0,Calm,Calm,-,N/A,,Clear,0,2012-12-13 04:53:00